Showing default

CFOSAT, 43662

Orbit data source: Space-Track

CFOSAT, 43662 is a Chinese payload satellite in SSO that was launched on Mon, 29 Oct 2018 UTC via a CHANG ZHENG 2C launch vehicle from the Jiuquan Satellite Launch Center, China (JSC). Payload-class satellites include a variety of spacecraft equipped with specific instruments for various scientific and technological missions. These include communications satellites like Starlink; space stations such as the ISS; scientific satellites like the Hubble; Earth observation satellites from companies like Planet Labs, Umbra, and HawkEye 360; GPS; miniature CubeSats for education and research; and military/defense satellites.

Loading next visibility...
Identifier
43662, 2018-083A
Orbit
SSO
Country
Flag of CNCN / PRC
Related business
Manufacturer
DFH
Mission
Operational Civil Earth Obs Sci
Bus & Motor
CAST-2000, Unknown motor
Mass
700 kg wet, 700 kg dry
Launch date (UTC)
2018-10-29 (7 years ago)
Launch vehicle
CHANG ZHENG 2C
Launch site
Jiuquan Satellite Launch Center, China (JSC)
Object type
Payload
Rocket body
Debris
Shape & HBR
Box + 2 Pan, 5.0 m
Radar Cross Section
5.252 m², Large (>1 m²)

Expand to show TLE details & history
Last TLE update: 14 hours ago

TLE from 14 hours ago
0 CFOSAT
1 43662U 18083A   25347.27409208  .00006276  00000-0  32623-3 0  9994
2 43662  97.3625 352.2733 0001922 136.9677 223.1706 15.16417203394268
Epoch: 2025-12-13T06:34Z
TLE epoch observation values (Epoch: 2025-12-13T06:34:41.555Z)
Latitude
-0.00012°
Longitude
171.39645°
Altitude
520.733 km
Speed
7.602 km/s
True Right ascension
23h 29m 05s
True Declination
0° 00' 00"
Sunlit
Object was in daylight at epoch
Visualization orbit readout
Latitude
Unknown
Longitude
Unknown
Altitude
Unknown
Speed
Unknown
Apparent Right ascension
Unknown
Apparent Declination
Unknown
Sunlit
N/A
Visualization observer readout
Local Sidereal Time
18:46:28
Azimuth
Unknown
Elevation
Unknown
Doppler factor
Unknown
Orbital elements
Apogee altitude
514.973 km
Perigee altitude
512.324 km
Semi-major axis
6,891.785 km
Eccentricity
0.00019
Inclination
97.3625°
RAAN
352.2733°
Arg. of periapsis
136.9677°
True anomaly
223.15553°
Mean anomaly
223.1706°
Eccentric anomaly
223.16307°
Mean motion
3.79355 °/min
Orbital period
94.9 mins
BSTAR
0.00032623
Loading maneuver chart data...
Computing Atmospheric mass density...
Loading historical data...
Loading historical data...
Loading historical data...
Loading historical data...
Loading historical data...
Loading historical data...
Loading historical data...

Documentation

Showing up to 5 results
|